Location: Berlin
(42.3812°N, 71.6370°W)
Time: 05:27:02
(UTC+00:00)

Daily predictions for brighter satellites

Satellite Brightness Start Highest point End
(mag) Time Altitude Azimuth Time Altitude Azimuth Time Altitude Azimuth
Cosmos 1954 Rocket 4.4 00:00:44 10° SSW 00:05:56 60° WNW 00:06:16 58° NW
RESURS DK-1 4.1 00:02:56 10° NW 00:05:59 30° W 00:05:59 30° W
Resurs 01 Rocket 4.3 00:12:18 11° NNW 00:12:18 11° NNW 00:12:27 10° NNW
Okean 2 Rocket 4.3 00:04:25 10° SSW 00:08:01 39° W 00:08:01 39° W
COSMOS 2406 4.2 00:04:34 10° NNW 00:07:52 36° N 00:07:52 36° N
ATLAS 2AS CENTAUR R/B 4.0 00:07:08 10° NNW 00:10:49 25° N 00:10:49 25° N
SJ 16-02 3.2 00:12:40 10° SW 00:15:05 28° WSW 00:15:05 28° WSW
ISS -0.3 00:13:58 10° WNW 00:14:17 12° WNW 00:14:17 12° WNW
USA 281 4.4 01:07:16 37° WNW 01:07:16 37° WNW 01:11:28 10° NW
ACS3 Solar Sail 4.3 07:36:05 10° NNE 07:36:21 11° NNE 07:36:21 11° NNE
Cosmos 2123 Rocket 4.4 08:39:00 55° NE 08:39:00 55° NE 08:43:53 10° NNE
Cosmos 2278 Rocket 3.7 08:43:28 25° SSE 08:43:28 25° SSE 08:45:45 10° SSE
Cosmos 2237 Rocket 3.3 08:43:08 36° NNE 08:43:08 36° NNE 08:46:22 10° NNE
SJ 16-02 3.6 08:41:29 20° NE 08:42:01 21° ENE 08:45:14 10° ESE
Cosmos 1943 Rocket 4.0 08:46:29 20° SSE 08:46:29 20° SSE 08:48:07 10° SSE
Cosmos 2016 Rocket 4.4 08:39:34 10° N 08:45:53 62° E 08:52:07 10° SSE
ARGOS 4.4 08:41:52 10° NNE 08:44:44 32° NNE 08:44:44 32° NNE
Cosmos 1932 4.5 08:52:11 81° NNE 08:52:27 84° ENE 08:58:58 10° SE
USA 267 3.2 08:46:13 10° NE 08:52:47 81° SE 08:53:32 71° SSW
NOSS 3-1 (A) 4.4 08:59:37 28° N 08:59:37 28° N 09:02:39 10° NNE
ATLAS 3B R/B 4.0 08:56:23 10° S 09:03:12 42° ESE 09:10:25 10° NE
Meteor 2-16 Rocket 4.3 09:03:06 65° SSW 09:04:04 86° W 09:10:15 10° N
CENTAUR R/B 4.4 09:01:19 16° NNW 09:07:21 38° NE 09:15:49 10° ESE
ADEOS Rocket 4.4 09:12:54 10° N 09:16:31 28° NNW 09:16:31 28° NNW
Cosmos 2292 Rocket 3.9 09:20:13 72° WSW 09:20:30 74° W 09:26:41 10° N
ACS3 Solar Sail 3.7 09:19:30 10° N 09:20:28 14° NNW 09:20:28 14° NNW
USA 234 3.7 09:21:47 10° ESE 09:28:10 58° NNE 09:31:50 27° NW
Cosmos 1656 Rocket 4.2 09:24:18 19° NNW 09:28:26 60° ENE 09:34:00 10° SE
Cosmos 2242 Rocket 4.2 09:28:13 10° S 09:32:29 54° E 09:36:47 10° NNE
Cosmos 1420 Rocket 4.2 09:38:44 48° WNW 09:38:44 48° WNW 09:43:45 10° N
Cosmos 2061 Rocket 3.8 09:32:39 10° N 09:38:52 81° W 09:45:03 10° S
Cosmos 1624 Rocket 3.8 09:34:26 14° SSW 09:38:53 81° WNW 09:44:05 10° NNE
Cosmos 2251 Rocket 3.5 09:38:22 43° NW 09:39:59 62° WSW 09:45:14 10° S
SL-16 R/B 2.2 09:38:29 10° SSW 09:44:10 82° ESE 09:49:53 10° NNE
PAYLOAD A 4.3 09:40:07 10° N 09:45:11 45° WNW 09:45:53 42° W
Cosmos 1725 Rocket 4.3 09:40:19 10° NNW 09:46:14 43° W 09:52:06 10° SSW
Aureole 3 Rocket 4.3 09:42:38 10° N 09:48:00 69° E 09:55:30 10° SSE
Cosmos 2233 Rocket 3.9 09:42:08 10° NNW 09:48:19 62° W 09:54:26 10° S
Cosmos 1447 Rocket 4.4 09:44:50 10° S 09:51:05 83° W 09:57:26 10° N
BREEZE-M DEB (TANK) 2.7 09:54:02 32° S 09:54:40 40° SSE 09:57:49 10° ENE
USA 306 4.0 09:56:43 21° N 09:56:43 21° N 09:58:58 10° NNE
CZ-2C R/B 3.7 09:55:27 10° N 09:58:22 24° NW 09:58:22 24° NW
Cosmos 2346 Rocket 4.4 09:56:13 10° SSW 10:02:18 65° W 10:08:21 10° N
SJ-11-01 4.3 09:59:20 10° N 10:03:56 57° WNW 10:08:31 10° SSW
Cosmos 1331 Rocket 4.4 10:03:23 10° S 10:08:34 66° ESE 10:13:45 10° NNE
Okean 2 Rocket 4.0 10:12:41 10° N 10:16:56 50° ENE 10:21:11 10° SSE
BREEZE-M DEB (TANK) 4.3 10:09:59 20° W 10:18:12 66° N 10:22:23 10° E
SKYMED 2 3.6 10:15:55 10° S 10:20:12 59° W 10:24:30 10° NNW
SJ 16-02 1.8 10:18:05 22° NW 10:20:15 36° WSW 10:24:09 10° SSW
Cosmos 676 Rocket 4.1 10:15:42 10° NNW 10:20:41 52° WSW 10:25:41 10° S
Aureole 3 4.4 10:15:04 10° SSW 10:20:44 43° WNW 10:25:34 10° N
COSMO-SKYMED 1 2.3 10:18:50 10° S 10:22:56 78° WSW 10:27:05 10° NNW
Cosmos 2237 Rocket 3.7 10:24:59 16° NW 10:25:30 17° NW 10:29:02 10° N
Cosmos 2056 Rocket 4.3 10:23:07 10° WSW 10:27:53 31° WNW 10:32:41 10° N
Cosmos 2297 3.7 10:25:17 10° NNW 10:30:57 87° WSW 10:36:34 10° SSE
Cosmos 1072 Rocket 4.5 10:26:27 10° N 10:32:36 86° W 10:38:47 10° S
USA 229 DEB 3.5 10:26:49 10° SW 10:32:36 60° NW 10:39:08 10° NNE
USA 229 3.5 10:27:02 10° SW 10:32:49 61° NW 10:39:21 10° NNE
Cosmos 1025 Rocket 3.1 10:28:53 10° S 10:33:14 80° E 10:37:36 10° N
Cosmos 1943 3.4 10:29:15 10° SSW 10:34:49 76° ESE 10:40:27 10° NNE
USA 267 3.8 10:29:29 10° NE 10:35:26 39° NNW 10:40:54 12° W
Cosmos 2369 Rocket 2.2 10:30:17 10° NNW 10:35:59 77° WSW 10:41:41 10° SSE
Cosmos 1674 Rocket 3.5 10:34:36 10° SSW 10:38:59 62° W 10:43:23 10° N
IRS-1D 4.0 10:36:18 10° N 10:40:42 33° WNW 10:45:05 10° SW
Lacrosse 5 rocket 2.7 10:38:32 10° NNW 10:41:17 23° NNE 10:43:59 10° E
Cosmos 1484 Rocket 2.4 10:38:57 10° N 10:42:29 72° WNW 10:45:58 10° SSW
Cosmos 1400 Rocket 2.7 10:39:55 10° NNW 10:43:32 52° W 10:47:04 10° S
Cosmos 371 Rocket 4.4 10:45:49 10° NW 10:49:40 24° W 10:53:31 10° SSW
Helios 1A Rocket 3.6 10:47:07 10° SSW 10:49:54 24° W 10:52:43 10° NW
Lacrosse 4 Rocket 3.3 10:46:50 10° N 10:50:05 24° NE 10:53:16 10° ESE
Cosmos 2221 Rocket 3.6 10:45:51 10° SSW 10:50:22 74° W 10:54:55 10° N
Cosmos 968 Rocket 3.6 10:47:22 10° NNW 10:52:31 56° WSW 10:57:36 10° S
ATLAS 3B R/B 3.2 10:46:35 10° WSW 10:53:53 51° NW 11:01:32 10° NNE
Cosmos 1812 3.8 10:53:54 11° WNW 10:55:15 14° W 10:56:56 10° SW
Cosmos 1741 Rocket 4.0 10:51:22 10° NNW 10:56:40 71° WSW 11:01:55 10° S
CENTAUR R/B 3.4 10:50:15 10° NW 10:58:47 74° WSW 11:08:14 10° SSE
Cosmos 1455 Rocket 3.8 10:54:38 10° N 10:58:55 55° E 11:03:11 10° SSE
Cosmos 2151 Rocket 4.0 10:55:08 10° NNW 10:59:21 42° W 11:03:32 10° SSW
Cosmos 1110 Rocket 4.5 10:58:23 10° SW 11:03:19 39° WNW 11:08:18 10° N
Cosmos 1302 Rocket 4.0 11:01:42 10° SSW 11:06:52 88° WNW 11:12:05 10° NNE
Sich 1 Rocket 3.7 11:02:33 10° NNW 11:06:58 55° W 11:11:20 10° S
USA 234 3.8 11:05:03 10° SSE 11:11:15 45° SW 11:17:31 10° WNW
Thor Agena Rocket 3.6 11:06:03 10° NNE 11:11:16 84° WNW 11:16:22 10° SSW
